Time,TemperatureF,DewpointF,PressureIn,WindDirection,WindDirectionDegrees,WindSpeedMPH,WindSpeedGustMPH,Humidity,HourlyPrecipIn,Conditions,Clouds,dailyrainin,SoftwareType,DateUTC
2013-09-11 00:08:00,69.0,66.0,27.03,North,8,7.0,7.0,90,0.00,,,-99.99,,2013-09-11 05:08:00,
2013-09-11 00:23:00,68.0,64.0,27.03,North,0,4.0,4.0,90,0.00,,,-99.99,,2013-09-11 05:23:00,
2013-09-11 00:33:00,68.0,64.0,27.03,North,8,5.0,6.0,90,0.00,,,-99.99,,2013-09-11 05:33:00,
2013-09-11 00:38:00,68.0,64.0,27.03,North,3,4.0,5.0,90,0.00,,,-99.99,,2013-09-11 05:38:00,
2013-09-11 00:48:00,67.0,64.0,27.03,North,10,5.0,5.0,91,0.00,,,-99.99,,2013-09-11 05:48:00,
2013-09-11 00:53:00,67.0,64.0,27.03,North,3,5.0,5.0,91,0.00,,,-99.99,,2013-09-11 05:53:00,
2013-09-11 01:03:00,67.0,64.0,27.03,North,358,6.0,6.0,91,0.00,,,-99.99,,2013-09-11 06:03:00,
2013-09-11 01:13:00,66.0,63.0,27.03,North,10,6.0,7.0,91,0.00,,,-99.99,,2013-09-11 06:13:00,
2013-09-11 01:28:00,66.0,64.0,27.03,NE,41,7.0,8.0,92,0.00,,,-99.99,,2013-09-11 06:28:00,
2013-09-11 01:33:00,66.0,64.0,27.03,NE,45,7.0,10.0,92,0.00,,,-99.99,,2013-09-11 06:33:00,
2013-09-11 01:38:00,67.0,64.0,27.03,NE,49,8.0,10.0,92,0.00,,,-99.99,,2013-09-11 06:38:00,
2013-09-11 01:43:00,67.0,64.0,27.03,East,87,9.0,11.0,92,0.00,,,-99.99,,2013-09-11 06:43:00,
2013-09-11 01:48:00,67.0,64.0,27.03,East,89,9.0,11.0,92,0.00,,,-99.99,,2013-09-11 06:48:00,
2013-09-11 01:58:00,67.0,64.0,27.02,ENE,78,10.0,12.0,92,0.00,,,-99.99,,2013-09-11 06:58:00,
2013-09-11 02:03:00,67.0,64.0,27.02,ENE,63,8.0,9.0,92,0.00,,,-99.99,,2013-09-11 07:03:00,
2013-09-11 02:13:00,67.0,64.0,27.03,NNE,31,7.0,9.0,92,0.00,,,-99.99,,2013-09-11 07:13:00,
2013-09-11 02:18:00,67.0,64.0,27.03,NNE,27,6.0,7.0,92,0.00,,,-99.99,,2013-09-11 07:18:00,
2013-09-11 02:23:00,67.0,64.0,27.03,NE,56,6.0,9.0,92,0.00,,,-99.99,,2013-09-11 07:23:00,
2013-09-11 02:28:00,67.0,64.0,27.03,ENE,78,6.0,7.0,92,0.00,,,-99.99,,2013-09-11 07:28:00,
2013-09-11 02:38:00,67.0,64.0,27.03,East,83,8.0,10.0,93,0.00,,,-99.99,,2013-09-11 07:38:00,
2013-09-11 02:43:00,67.0,64.0,27.02,East,92,9.0,10.0,93,0.00,,,-99.99,,2013-09-11 07:43:00,
2013-09-11 02:53:00,67.0,64.0,27.02,East,94,10.0,12.0,93,0.00,,,-99.99,,2013-09-11 07:53:00,
2013-09-11 03:08:00,67.0,64.0,27.03,East,79,9.0,10.0,93,0.00,,,-99.99,,2013-09-11 08:08:00,
2013-09-11 03:13:00,67.0,64.0,27.03,ENE,78,8.0,10.0,93,0.00,,,-99.99,,2013-09-11 08:13:00,
2013-09-11 03:23:00,67.0,64.0,27.03,ENE,75,7.0,9.0,93,0.00,,,-99.99,,2013-09-11 08:23:00,
2013-09-11 03:28:00,67.0,64.0,27.03,East,79,6.0,8.0,93,0.00,,,-99.99,,2013-09-11 08:28:00,
2013-09-11 03:38:00,67.0,64.0,27.03,ENE,78,7.0,8.0,93,0.00,,,-99.99,,2013-09-11 08:38:00,
2013-09-11 03:43:00,67.0,64.0,27.03,ENE,62,7.0,9.0,93,0.00,,,-99.99,,2013-09-11 08:43:00,
2013-09-11 03:53:00,67.0,64.0,27.03,ENE,66,5.0,7.0,93,0.00,,,-99.99,,2013-09-11 08:53:00,
2013-09-11 04:03:00,67.0,64.0,27.04,NE,42,6.0,7.0,94,0.00,,,-99.99,,2013-09-11 09:03:00,
2013-09-11 04:08:00,67.0,64.0,27.04,NE,55,6.0,8.0,94,0.00,,,-99.99,,2013-09-11 09:08:00,
2013-09-11 04:18:00,66.0,64.0,27.04,NE,51,6.0,8.0,94,0.00,,,-99.99,,2013-09-11 09:18:00,
2013-09-11 04:23:00,66.0,64.0,27.04,NE,41,6.0,7.0,94,0.00,,,-99.99,,2013-09-11 09:23:00,
2013-09-11 04:33:00,66.0,64.0,27.04,NE,47,8.0,9.0,94,0.00,,,-99.99,,2013-09-11 09:33:00,
2013-09-11 04:38:00,66.0,64.0,27.04,NE,48,7.0,8.0,94,0.00,,,-99.99,,2013-09-11 09:38:00,
2013-09-11 04:48:00,66.0,64.0,27.03,NNE,27,6.0,7.0,94,0.00,,,-99.99,,2013-09-11 09:48:00,
2013-09-11 04:53:00,66.0,64.0,27.04,NNE,28,5.0,6.0,94,0.00,,,-99.99,,2013-09-11 09:53:00,
2013-09-11 04:58:00,66.0,64.0,27.04,NNE,28,6.0,8.0,94,0.00,,,-99.99,,2013-09-11 09:58:00,
2013-09-11 05:03:00,65.0,63.0,27.04,NNE,31,6.0,7.0,94,0.00,,,-99.99,,2013-09-11 10:03:00,
2013-09-11 05:08:00,65.0,64.0,27.04,NNE,24,6.0,7.0,95,0.00,,,-99.99,,2013-09-11 10:08:00,
2013-09-11 05:13:00,65.0,64.0,27.04,NNE,27,6.0,8.0,95,0.00,,,-99.99,,2013-09-11 10:13:00,
2013-09-11 05:18:00,65.0,63.0,27.04,NNE,30,7.0,8.0,94,0.00,,,-99.99,,2013-09-11 10:18:00,
2013-09-11 05:23:00,65.0,63.0,27.04,NNE,32,8.0,9.0,94,0.00,,,-99.99,,2013-09-11 10:23:00,
2013-09-11 05:33:00,65.0,63.0,27.04,NE,37,7.0,8.0,94,0.00,,,-99.99,,2013-09-11 10:33:00,
2013-09-11 05:38:00,65.0,64.0,27.04,NE,37,7.0,8.0,95,0.00,,,-99.99,,2013-09-11 10:38:00,
2013-09-11 05:48:00,65.0,64.0,27.04,NE,49,7.0,9.0,95,0.00,,,-99.99,,2013-09-11 10:48:00,
2013-09-11 05:53:00,65.0,64.0,27.04,NE,48,8.0,11.0,95,0.00,,,-99.99,,2013-09-11 10:53:00,
2013-09-11 06:03:00,65.0,64.0,27.04,NE,45,9.0,10.0,95,0.00,,,-99.99,,2013-09-11 11:03:00,
2013-09-11 06:08:00,65.0,64.0,27.04,NE,38,10.0,12.0,95,0.00,,,-99.99,,2013-09-11 11:08:00,
2013-09-11 06:18:00,66.0,64.0,27.04,NE,48,10.0,12.0,95,0.00,,,-99.99,,2013-09-11 11:18:00,
2013-09-11 06:23:00,66.0,64.0,27.05,NE,49,9.0,11.0,95,0.00,,,-99.99,,2013-09-11 11:23:00,
2013-09-11 06:33:00,66.0,64.0,27.05,NE,45,10.0,12.0,95,0.00,,,-99.99,,2013-09-11 11:33:00,
2013-09-11 06:38:00,65.0,64.0,27.05,NE,55,9.0,11.0,95,0.00,,,-99.99,,2013-09-11 11:38:00,
2013-09-11 06:48:00,65.0,64.0,27.05,NE,51,9.0,11.0,95,0.00,,,-99.99,,2013-09-11 11:48:00,
2013-09-11 06:53:00,65.0,64.0,27.05,NE,47,9.0,11.0,95,0.00,,,-99.99,,2013-09-11 11:53:00,
2013-09-11 07:03:00,65.0,64.0,27.06,ENE,61,9.0,10.0,95,0.00,,,-99.99,,2013-09-11 12:03:00,
2013-09-11 07:08:00,65.0,64.0,27.06,ENE,68,8.0,10.0,95,0.00,,,-99.99,,2013-09-11 12:08:00,
2013-09-11 07:18:00,65.0,64.0,27.06,East,79,9.0,11.0,95,0.00,,,-99.99,,2013-09-11 12:18:00,
2013-09-11 07:23:00,65.0,64.0,27.06,ENE,78,9.0,11.0,95,0.00,,,-99.99,,2013-09-11 12:23:00,
2013-09-11 07:33:00,65.0,64.0,27.05,ENE,76,10.0,12.0,96,0.00,,,-99.99,,2013-09-11 12:33:00,
2013-09-11 07:38:00,65.0,64.0,27.06,East,82,8.0,9.0,96,0.00,,,-99.99,,2013-09-11 12:38:00,
2013-09-11 07:48:00,65.0,64.0,27.06,East,89,8.0,10.0,96,0.00,,,-99.99,,2013-09-11 12:48:00,
2013-09-11 07:53:00,65.0,64.0,27.06,ENE,78,8.0,9.0,96,0.00,,,-99.99,,2013-09-11 12:53:00,
2013-09-11 07:58:00,65.0,64.0,27.06,East,80,8.0,10.0,96,0.00,,,-99.99,,2013-09-11 12:58:00,
2013-09-11 08:03:00,65.0,64.0,27.06,East,83,8.0,10.0,96,0.00,,,-99.99,,2013-09-11 13:03:00,
2013-09-11 08:08:00,66.0,64.0,27.07,East,87,9.0,10.0,96,0.00,,,-99.99,,2013-09-11 13:08:00,
2013-09-11 08:18:00,66.0,64.0,27.07,East,82,9.0,11.0,96,0.00,,,-99.99,,2013-09-11 13:18:00,
2013-09-11 08:23:00,66.0,64.0,27.07,East,83,9.0,10.0,96,0.00,,,-99.99,,2013-09-11 13:23:00,
2013-09-11 08:33:00,66.0,64.0,27.07,East,96,8.0,9.0,96,0.00,,,-99.99,,2013-09-11 13:33:00,
2013-09-11 08:38:00,66.0,64.0,27.07,East,87,8.0,8.0,96,0.00,,,-99.99,,2013-09-11 13:38:00,
2013-09-11 08:43:00,66.0,64.0,27.07,East,90,7.0,9.0,96,0.00,,,-99.99,,2013-09-11 13:43:00,
2013-09-11 08:53:00,67.0,66.0,27.07,East,87,9.0,10.0,96,0.00,,,-99.99,,2013-09-11 13:53:00,
2013-09-11 08:58:00,67.0,66.0,27.07,East,92,10.0,11.0,96,0.00,,,-99.99,,2013-09-11 13:58:00,
2013-09-11 09:03:00,67.0,66.0,27.07,East,90,10.0,11.0,96,0.00,,,-99.99,,2013-09-11 14:03:00,
2013-09-11 09:08:00,67.0,66.0,27.07,East,94,10.0,11.0,96,0.00,,,-99.99,,2013-09-11 14:08:00,
2013-09-11 09:18:00,67.0,66.0,27.08,East,97,9.0,10.0,95,0.00,,,-99.99,,2013-09-11 14:18:00,
2013-09-11 09:23:00,67.0,66.0,27.08,ESE,118,8.0,9.0,95,0.00,,,-99.99,,2013-09-11 14:23:00,
2013-09-11 09:33:00,68.0,66.0,27.08,ESE,104,8.0,9.0,95,0.00,,,-99.99,,2013-09-11 14:33:00,
2013-09-11 09:38:00,68.0,66.0,27.08,East,90,7.0,9.0,96,0.00,,,-99.99,,2013-09-11 14:38:00,
2013-09-11 09:48:00,68.0,66.0,27.08,East,93,9.0,9.0,95,0.00,,,-99.99,,2013-09-11 14:48:00,
2013-09-11 09:53:00,68.0,66.0,27.08,East,90,9.0,10.0,95,0.00,,,-99.99,,2013-09-11 14:53:00,
2013-09-11 10:03:00,68.0,66.0,27.08,East,96,7.0,9.0,95,0.00,,,-99.99,,2013-09-11 15:03:00,
2013-09-11 10:08:00,69.0,68.0,27.08,East,79,8.0,9.0,95,0.00,,,-99.99,,2013-09-11 15:08:00,
2013-09-11 10:18:00,69.0,68.0,27.08,ENE,76,8.0,9.0,95,0.00,,,-99.99,,2013-09-11 15:18:00,
2013-09-11 10:28:00,69.0,68.0,27.08,ENE,75,7.0,8.0,95,0.00,,,-99.99,,2013-09-11 15:28:00,
2013-09-11 10:33:00,69.0,68.0,27.08,East,85,8.0,9.0,95,0.00,,,-99.99,,2013-09-11 15:33:00,
2013-09-11 10:43:00,70.0,68.0,27.08,ENE,69,8.0,9.0,94,0.00,,,-99.99,,2013-09-11 15:43:00,
2013-09-11 10:48:00,71.0,70.0,27.08,ENE,75,8.0,10.0,94,0.00,,,-99.99,,2013-09-11 15:48:00,
2013-09-11 10:53:00,71.0,68.0,27.09,ENE,58,9.0,10.0,93,0.00,,,-99.99,,2013-09-11 15:53:00,
2013-09-11 10:58:00,72.0,70.0,27.08,NE,56,8.0,10.0,93,0.00,,,-99.99,,2013-09-11 15:58:00,
2013-09-11 11:03:00,72.0,70.0,27.08,ENE,63,9.0,11.0,92,0.00,,,-99.99,,2013-09-11 16:03:00,
2013-09-11 11:08:00,73.0,70.0,27.08,ENE,58,10.0,13.0,91,0.00,,,-99.99,,2013-09-11 16:08:00,
2013-09-11 11:18:00,74.0,72.0,27.08,ENE,72,10.0,13.0,90,0.00,,,-99.99,,2013-09-11 16:18:00,
2013-09-11 11:23:00,74.0,72.0,27.08,ENE,72,10.0,11.0,90,0.00,,,-99.99,,2013-09-11 16:23:00,
2013-09-11 11:28:00,74.0,70.0,27.08,East,79,8.0,11.0,89,0.00,,,-99.99,,2013-09-11 16:28:00,
2013-09-11 11:33:00,75.0,72.0,27.08,East,87,9.0,11.0,87,0.00,,,-99.99,,2013-09-11 16:33:00,
2013-09-11 11:43:00,75.0,70.0,27.08,East,79,8.0,10.0,85,0.00,,,-99.99,,2013-09-11 16:43:00,
2013-09-11 11:53:00,75.0,70.0,27.08,NE,45,9.0,11.0,85,0.00,,,-99.99,,2013-09-11 16:53:00,
2013-09-11 12:03:00,75.0,70.0,27.09,East,82,8.0,10.0,84,0.00,,,-99.99,,2013-09-11 17:03:00,
2013-09-11 12:08:00,75.0,70.0,27.09,NE,35,8.0,9.0,84,0.00,,,-99.99,,2013-09-11 17:08:00,
2013-09-11 12:13:00,76.0,70.0,27.09,ENE,62,7.0,9.0,83,0.00,,,-99.99,,2013-09-11 17:13:00,
2013-09-11 12:18:00,76.0,70.0,27.09,NE,45,8.0,8.0,82,0.00,,,-99.99,,2013-09-11 17:18:00,
2013-09-11 12:28:00,76.0,70.0,27.09,ENE,58,7.0,8.0,81,0.00,,,-99.99,,2013-09-11 17:28:00,
2013-09-11 12:38:00,77.0,72.0,27.08,NE,44,10.0,12.0,81,0.00,,,-99.99,,2013-09-11 17:38:00,
2013-09-11 12:43:00,77.0,72.0,27.08,NE,44,8.0,10.0,81,0.00,,,-99.99,,2013-09-11 17:43:00,
2013-09-11 12:48:00,77.0,72.0,27.08,NE,56,7.0,9.0,81,0.00,,,-99.99,,2013-09-11 17:48:00,
2013-09-11 12:53:00,77.0,70.0,27.08,NE,45,9.0,10.0,80,0.00,,,-99.99,,2013-09-11 17:53:00,
2013-09-11 13:03:00,78.0,72.0,27.08,NNE,18,10.0,11.0,79,0.00,,,-99.99,,2013-09-11 18:03:00,
2013-09-11 13:13:00,77.0,70.0,27.08,NNE,30,10.0,12.0,79,0.00,,,-99.99,,2013-09-11 18:13:00,
2013-09-11 13:23:00,77.0,70.0,27.07,NE,35,8.0,9.0,79,0.00,,,-99.99,,2013-09-11 18:23:00,
2013-09-11 13:33:00,78.0,70.0,27.07,ENE,63,9.0,10.0,78,0.00,,,-99.99,,2013-09-11 18:33:00,
2013-09-11 13:38:00,78.0,70.0,27.07,NE,51,8.0,11.0,78,0.00,,,-99.99,,2013-09-11 18:38:00,
2013-09-11 13:48:00,78.0,70.0,27.07,NE,47,11.0,12.0,78,0.00,,,-99.99,,2013-09-11 18:48:00,
2013-09-11 13:58:00,79.0,70.0,27.07,NE,47,9.0,12.0,75,0.00,,,-99.99,,2013-09-11 18:58:00,
2013-09-11 14:08:00,79.0,70.0,27.07,NE,34,9.0,12.0,75,0.00,,,-99.99,,2013-09-11 19:08:00,
2013-09-11 14:18:00,80.0,70.0,27.07,NE,55,10.0,11.0,72,0.00,,,-99.99,,2013-09-11 19:18:00,
2013-09-11 14:28:00,80.0,70.0,27.07,ENE,62,12.0,14.0,70,0.00,,,-99.99,,2013-09-11 19:28:00,
2013-09-11 14:38:00,80.0,70.0,27.06,ENE,58,11.0,12.0,70,0.00,,,-99.99,,2013-09-11 19:38:00,
2013-09-11 14:43:00,80.0,70.0,27.06,East,83,11.0,13.0,70,0.00,,,-99.99,,2013-09-11 19:43:00,
2013-09-11 14:48:00,80.0,70.0,27.06,ENE,78,12.0,13.0,70,0.00,,,-99.99,,2013-09-11 19:48:00,
2013-09-11 14:53:00,80.0,70.0,27.06,ENE,68,8.0,11.0,71,0.00,,,-99.99,,2013-09-11 19:53:00,
2013-09-11 15:03:00,80.0,70.0,27.06,NE,47,11.0,14.0,70,0.00,,,-99.99,,2013-09-11 20:03:00,
2013-09-11 15:13:00,80.0,70.0,27.05,ENE,78,11.0,14.0,70,0.00,,,-99.99,,2013-09-11 20:13:00,
2013-09-11 15:18:00,80.0,70.0,27.06,ENE,61,12.0,14.0,70,0.00,,,-99.99,,2013-09-11 20:18:00,
2013-09-11 15:23:00,80.0,70.0,27.06,ENE,66,10.0,12.0,70,0.00,,,-99.99,,2013-09-11 20:23:00,
2013-09-11 15:33:00,80.0,70.0,27.05,ENE,73,12.0,15.0,70,0.00,,,-99.99,,2013-09-11 20:33:00,
2013-09-11 15:38:00,80.0,68.0,27.05,ENE,76,12.0,13.0,68,0.00,,,-99.99,,2013-09-11 20:38:00,
2013-09-11 15:43:00,80.0,68.0,27.05,NE,45,12.0,15.0,69,0.00,,,-99.99,,2013-09-11 20:43:00,
2013-09-11 15:48:00,80.0,68.0,27.05,ENE,75,14.0,16.0,69,0.00,,,-99.99,,2013-09-11 20:48:00,
2013-09-11 15:58:00,80.0,70.0,27.05,NNE,30,12.0,15.0,70,0.00,,,-99.99,,2013-09-11 20:58:00,
2013-09-11 16:08:00,79.0,70.0,27.05,NE,55,13.0,16.0,72,0.00,,,-99.99,,2013-09-11 21:08:00,
2013-09-11 16:13:00,79.0,70.0,27.05,NE,45,13.0,15.0,72,0.00,,,-99.99,,2013-09-11 21:13:00,
2013-09-11 16:18:00,79.0,70.0,27.05,ENE,61,13.0,15.0,72,0.00,,,-99.99,,2013-09-11 21:18:00,
2013-09-11 16:23:00,79.0,70.0,27.04,NE,47,13.0,17.0,72,0.00,,,-99.99,,2013-09-11 21:23:00,
2013-09-11 16:28:00,79.0,70.0,27.05,NE,37,14.0,15.0,73,0.00,,,-99.99,,2013-09-11 21:28:00,
2013-09-11 16:33:00,79.0,70.0,27.05,NNE,18,12.0,15.0,73,0.00,,,-99.99,,2013-09-11 21:33:00,
2013-09-11 16:38:00,79.0,70.0,27.05,NNE,31,13.0,15.0,72,0.00,,,-99.99,,2013-09-11 21:38:00,
2013-09-11 16:43:00,78.0,68.0,27.05,NE,37,13.0,15.0,72,0.00,,,-99.99,,2013-09-11 21:43:00,
2013-09-11 16:53:00,78.0,68.0,27.05,NE,45,12.0,15.0,72,0.00,,,-99.99,,2013-09-11 21:53:00,
2013-09-11 17:03:00,78.0,70.0,27.05,NE,41,13.0,15.0,74,0.00,,,-99.99,,2013-09-11 22:03:00,
2013-09-11 17:08:00,78.0,70.0,27.06,ENE,59,14.0,18.0,74,0.00,,,-99.99,,2013-09-11 22:08:00,
2013-09-11 17:13:00,78.0,70.0,27.06,NE,51,15.0,18.0,74,0.00,,,-99.99,,2013-09-11 22:13:00,
2013-09-11 17:18:00,77.0,68.0,27.06,NE,47,15.0,18.0,75,0.00,,,-99.99,,2013-09-11 22:18:00,
2013-09-11 17:23:00,77.0,68.0,27.06,NE,55,16.0,19.0,75,0.00,,,-99.99,,2013-09-11 22:23:00,
2013-09-11 17:28:00,77.0,68.0,27.06,ENE,62,15.0,19.0,75,0.00,,,-99.99,,2013-09-11 22:28:00,
2013-09-11 17:33:00,77.0,68.0,27.06,ENE,72,16.0,19.0,76,0.00,,,-99.99,,2013-09-11 22:33:00,
2013-09-11 17:38:00,77.0,68.0,27.07,ENE,66,16.0,19.0,76,0.00,,,-99.99,,2013-09-11 22:38:00,
2013-09-11 17:43:00,77.0,70.0,27.07,ENE,69,16.0,19.0,77,0.00,,,-99.99,,2013-09-11 22:43:00,
2013-09-11 17:48:00,77.0,70.0,27.07,ENE,68,16.0,19.0,77,0.00,,,-99.99,,2013-09-11 22:48:00,
2013-09-11 17:53:00,76.0,66.0,27.09,SSE,149,21.0,27.0,71,0.00,,,-99.99,,2013-09-11 22:53:00,
2013-09-11 17:58:00,73.0,64.0,27.09,South,178,19.0,22.0,74,0.00,,,-99.99,,2013-09-11 22:58:00,
2013-09-11 18:03:00,71.0,64.0,27.09,SSW,193,18.0,21.0,81,0.00,,,-99.99,,2013-09-11 23:03:00,
2013-09-11 18:08:00,69.0,63.0,27.09,South,185,15.0,19.0,82,0.00,,,-99.99,,2013-09-11 23:08:00,
2013-09-11 18:13:00,68.0,63.0,27.10,South,179,13.0,15.0,84,0.00,,,-99.99,,2013-09-11 23:13:00,
2013-09-11 18:18:00,67.0,63.0,27.10,South,180,14.0,16.0,87,0.00,,,-99.99,,2013-09-11 23:18:00,
2013-09-11 18:28:00,66.0,63.0,27.11,South,190,12.0,13.0,90,0.00,,,-99.99,,2013-09-11 23:28:00,
2013-09-11 18:33:00,66.0,63.0,27.11,SSW,196,10.0,12.0,90,0.00,,,-99.99,,2013-09-11 23:33:00,
2013-09-11 18:43:00,66.0,63.0,27.10,SSW,199,7.0,9.0,90,0.00,,,-99.99,,2013-09-11 23:43:00,
2013-09-11 18:48:00,66.0,63.0,27.10,SW,220,5.0,7.0,91,0.00,,,-99.99,,2013-09-11 23:48:00,
2013-09-11 18:58:00,65.0,61.0,27.10,WSW,244,4.0,6.0,88,0.03,,,-99.99,,2013-09-11 23:58:00,
2013-09-11 19:03:00,65.0,61.0,27.10,WSW,237,5.0,7.0,87,0.04,,,-99.99,,2013-09-12 00:03:00,
2013-09-11 19:13:00,65.0,63.0,27.10,North,0,0.0,0.0,94,0.08,,,-99.99,,2013-09-12 00:13:00,
2013-09-11 19:18:00,65.0,63.0,27.09,North,0,0.0,0.0,93,0.09,,,-99.99,,2013-09-12 00:18:00,
2013-09-11 19:28:00,65.0,64.0,27.09,North,0,0.0,0.0,95,0.11,,,-99.99,,2013-09-12 00:28:00,
2013-09-11 19:33:00,65.0,64.0,27.09,North,0,0.0,0.0,95,0.13,,,-99.99,,2013-09-12 00:33:00,
2013-09-11 19:43:00,65.0,64.0,27.10,North,0,0.0,0.0,96,0.15,,,-99.99,,2013-09-12 00:43:00,
2013-09-11 19:48:00,65.0,64.0,27.10,North,0,0.0,0.0,96,0.16,,,-99.99,,2013-09-12 00:48:00,
2013-09-11 19:58:00,65.0,64.0,27.10,East,82,4.0,6.0,96,0.17,,,-99.99,,2013-09-12 00:58:00,
2013-09-11 20:03:00,65.0,64.0,27.10,ENE,76,3.0,4.0,96,0.18,,,-99.99,,2013-09-12 01:03:00,
2013-09-11 20:13:00,64.0,63.0,27.10,ENE,78,4.0,5.0,97,0.19,,,-99.99,,2013-09-12 01:13:00,
2013-09-11 20:18:00,64.0,63.0,27.09,ENE,73,4.0,5.0,97,0.19,,,-99.99,,2013-09-12 01:18:00,
2013-09-11 20:23:00,64.0,63.0,27.09,East,82,1.0,3.0,98,0.19,,,-99.99,,2013-09-12 01:23:00,
2013-09-11 20:28:00,64.0,63.0,27.10,ENE,75,3.0,4.0,98,0.19,,,-99.99,,2013-09-12 01:28:00,
2013-09-11 20:43:00,64.0,63.0,27.10,ENE,61,3.0,4.0,98,0.19,,,-99.99,,2013-09-12 01:43:00,
2013-09-11 20:48:00,64.0,63.0,27.10,North,0,0.0,0.0,98,0.19,,,-99.99,,2013-09-12 01:48:00,
2013-09-11 20:58:00,65.0,64.0,27.10,North,0,0.0,0.0,98,0.20,,,-99.99,,2013-09-12 01:58:00,
2013-09-11 21:03:00,65.0,64.0,27.10,North,0,0.0,0.0,98,0.20,,,-99.99,,2013-09-12 02:03:00,
2013-09-11 21:13:00,65.0,64.0,27.10,North,0,0.0,0.0,99,0.20,,,-99.99,,2013-09-12 02:13:00,
2013-09-11 21:18:00,65.0,64.0,27.10,North,0,0.0,0.0,99,0.20,,,-99.99,,2013-09-12 02:18:00,
2013-09-11 21:33:00,65.0,64.0,27.11,North,0,0.0,0.0,98,0.20,,,-99.99,,2013-09-12 02:33:00,
2013-09-11 21:48:00,65.0,64.0,27.11,North,0,0.0,0.0,95,0.20,,,-99.99,,2013-09-12 02:48:00,
2013-09-11 21:53:00,65.0,64.0,27.11,North,0,0.0,0.0,95,0.20,,,-99.99,,2013-09-12 02:53:00,
2013-09-11 22:03:00,65.0,63.0,27.11,East,97,4.0,5.0,91,0.20,,,-99.99,,2013-09-12 03:03:00,
2013-09-11 22:08:00,65.0,63.0,27.11,North,0,0.0,0.0,91,0.20,,,-99.99,,2013-09-12 03:08:00,
2013-09-11 22:18:00,66.0,64.0,27.11,North,0,0.0,0.0,92,0.20,,,-99.99,,2013-09-12 03:18:00,
2013-09-11 22:23:00,66.0,64.0,27.11,East,87,0.0,4.0,92,0.20,,,-99.99,,2013-09-12 03:23:00,
2013-09-11 22:33:00,66.0,64.0,27.11,East,92,6.0,7.0,93,0.20,,,-99.99,,2013-09-12 03:33:00,
2013-09-11 22:48:00,65.0,64.0,27.11,East,97,5.0,7.0,98,0.21,,,-99.99,,2013-09-12 03:48:00,
2013-09-11 22:53:00,65.0,64.0,27.11,North,0,0.0,0.0,98,0.21,,,-99.99,,2013-09-12 03:53:00,
2013-09-11 23:08:00,65.0,64.0,27.11,North,0,0.0,0.0,98,0.21,,,-99.99,,2013-09-12 04:08:00,
2013-09-11 23:13:00,65.0,64.0,27.11,North,0,0.0,0.0,98,0.21,,,-99.99,,2013-09-12 04:13:00,
2013-09-11 23:18:00,65.0,64.0,27.12,North,0,0.0,0.0,98,0.21,,,-99.99,,2013-09-12 04:18:00,
2013-09-11 23:23:00,65.0,64.0,27.12,North,0,0.0,0.0,98,0.21,,,-99.99,,2013-09-12 04:23:00,
2013-09-11 23:28:00,65.0,64.0,27.12,North,0,0.0,0.0,97,0.21,,,-99.99,,2013-09-12 04:28:00,
2013-09-11 23:38:00,65.0,64.0,27.12,North,0,0.0,0.0,97,0.21,,,-99.99,,2013-09-12 04:38:00,
2013-09-11 23:43:00,65.0,64.0,27.12,North,0,0.0,0.0,98,0.21,,,-99.99,,2013-09-12 04:43:00,
2013-09-11 23:53:00,65.0,64.0,27.12,North,0,0.0,0.0,98,0.21,,,-99.99,,2013-09-12 04:53:00,
2013-09-11 23:58:00,65.0,64.0,27.12,North,0,0.0,0.0,98,0.21,,,-99.99,,2013-09-12 04:58:00,